[[{"header":{"parameterUnit":"m.s-1","parameterCategory":1,"la1":30.2991,"la2":30.254,"lo1":-89.0895,"lo2":-89.0444,"dy":0.0017,"dx":0.0017,"nx":28,"ny":28,"refTime":"2026-02-04T09:00:00:Z","depth":0,"parameterNumber":2,"parameterNumberName":"U-component_of_WINDS"},"data":[0,0,0,0,0,0,0,0,0,0,0,0,0,0,0,0,0,0,0,0,0,0,0,0,0,0,0,0,0,0,0,0,0,0,0,0,0,0,0,0,0,0,0,0,0,0,0,0,0,0,0,0,0,0,0,0,0,0,4.9728,4.9729,0,4.9805,4.9805,4.9806,4.9768,4.9766,4.9764,4.9762,4.984,4.9844,4.9848,0,0,0,0,0,0,0,0,0,0,0,0,0,4.9551,4.9555,4.9728,4.9729,4.973,4.9804,4.9806,4.9807,4.9769,4.9766,4.9764,4.9761,4.9839,4.9844,4.9848,0,0,0,0,0,0,0,0,0,0,0,0,0,4.9628,4.9556,4.9728,4.972,4.972,4.9804,4.9806,4.9807,4.9769,4.9766,4.9763,4.976,4.9837,4.9843,4.9849,4.9945,0,0,4.9867,4.987,0,0,0,0,0,0,0,0,4.9624,4.9634,4.972,4.9721,4.9721,4.9774,4.9772,4.9853,4.977,4.9751,4.9762,4.9759,4.9821,4.9828,4.9849,4.9949,4.9952,4.9868,4.9871,4.9874,4.9875,0,0,0,0,0,0,0,4.9618,4.9631,4.9758,4.9722,4.9722,4.9713,4.9721,4.9787,4.9801,4.9752,4.9749,4.9759,4.982,4.9843,4.985,4.9953,4.9867,4.9873,4.9876,4.9879,5.014,5.0143,0,0,0,0,0,0,4.9613,4.9627,4.9756,4.9761,4.9664,4.9719,4.9727,4.976,4.9801,4.9804,4.9761,4.9757,4.9834,4.9843,4.9853,4.997,4.9874,4.9879,4.9883,5.0136,5.014,5.0144,0,0,0,0,0,0,4.961,4.9625,4.9753,4.9693,4.9709,4.9725,4.9762,4.9763,4.9786,4.9808,4.981,4.9782,4.9832,4.9844,4.9923,4.9972,4.9882,4.9887,5.0132,5.0138,5.0142,5.0204,0,0,0,0,0,0,4.9605,4.9624,4.966,4.9694,4.9712,4.9822,4.9765,4.9767,4.9796,4.9791,4.9828,4.9831,4.9831,4.9915,4.9929,4.9979,4.9892,5.0128,5.0135,5.0141,5.0198,5.0211,5.0222,0,0,0,0,0,4.9598,4.9674,4.9662,4.9678,4.9757,4.9825,4.9835,4.9833,4.98,4.9837,4.9852,4.983,4.9965,4.9923,4.9939,4.9991,5.0125,5.0133,5.014,5.0193,5.0208,5.0222,0,0,0,0,0,0,4.9644,4.9678,4.9665,4.9754,4.9787,4.9818,4.9864,4.985,4.9893,4.9886,4.9882,4.9891,4.9974,4.999,4.9943,5.0088,5.004,5.0051,5.0074,5.0089,5.0101,5.0095,4.9897,0,0,0,0,0,4.9664,4.9716,4.9743,4.9818,4.9836,4.9847,4.9876,4.9873,4.9907,4.992,4.9941,4.9975,5.0025,5.0058,5.0105,5.02,5.0209,5.0244,5.0256,5.0266,5.0276,5.033,5.0347,5.0169,5.0169,5.0169,0,0,4.9707,4.9732,4.9764,4.9828,4.9853,4.9908,4.9859,4.9918,4.9958,4.9929,5.0005,5.0022,5.006,5.0148,5.0188,5.0164,5.0327,5.0276,5.0283,5.0288,5.034,5.0357,5.0372,5.0175,5.0174,5.0173,0,0,4.9812,4.9836,4.9902,4.9929,4.9968,4.9976,4.9992,5.0027,5.0037,5.0113,5.0094,5.0142,5.0228,5.0257,5.0282,5.0402,5.0385,5.0418,5.0481,5.0534,5.0548,5.056,5.0605,5.0621,5.0427,5.0428,5.0428,0,4.986,4.9941,4.9938,5.0,5.0029,5.0007,5.0075,5.0101,5.0154,5.0175,5.0148,5.0258,5.0281,5.0377,5.0407,5.0428,5.0448,5.0413,5.0546,5.0558,5.057,5.0612,5.0629,5.0432,5.0431,5.0431,5.043,0,4.9999,5.0055,5.0104,5.0157,5.0192,5.0257,5.0265,5.0301,5.0296,5.0307,5.0387,5.0415,5.0469,5.0491,5.0485,5.0587,5.0572,5.0546,5.0497,5.0591,5.0631,5.0647,5.0437,5.0436,5.0435,5.0434,0,0,5.0133,5.0186,5.0204,5.0229,5.0272,5.0316,5.038,5.0434,5.0466,5.0503,5.0558,5.0633,5.061,5.064,5.0637,5.0684,5.078,5.0652,5.0653,5.0676,5.0897,5.0917,5.0936,5.0769,5.0772,5.0774,5.0894,0,5.0243,5.0356,5.0357,5.0461,5.0515,5.0496,5.0552,5.0585,5.0598,5.0646,5.066,5.0714,5.0678,5.0697,5.0742,5.0759,5.0824,5.075,5.0821,5.0824,5.0813,5.0956,5.0978,5.1089,5.091,5.0912,5.0914,0,5.0385,5.0429,5.0539,5.0577,5.06,5.065,5.0701,5.0747,5.0785,5.0791,5.0826,5.0817,5.0885,5.0834,5.0928,5.0878,5.0907,5.092,5.0924,5.0931,5.0875,5.0969,5.1125,5.1142,5.0938,5.0937,5.0935,0,5.0475,5.0561,5.0639,5.0661,5.0706,5.0743,5.0764,5.0799,5.0832,5.0876,5.0898,5.0949,5.0978,5.1019,5.1025,5.0987,5.112,5.107,5.1128,5.1129,5.1157,5.1156,5.1322,5.1175,5.1175,5.1174,5.1174,0,5.0598,5.0666,5.068,5.0728,5.0805,5.0807,5.0883,5.0901,5.0933,5.0985,5.0971,5.102,5.1025,5.1076,5.1082,5.116,5.1173,5.1181,5.1181,5.1182,5.1182,5.1202,5.1195,5.1179,5.1178,5.1177,5.1176,0,5.0711,5.0722,5.0806,5.0843,5.0854,5.091,5.0942,5.0989,5.1001,5.1067,5.1083,5.1102,5.1162,5.1173,5.1243,5.1246,5.1341,5.1333,5.1328,5.1327,5.1386,5.1381,5.1572,5.1598,5.1433,5.1435,5.1436,0,5.0789,5.0841,5.0885,5.0919,5.0942,5.0996,5.1031,5.1035,5.1071,5.1121,5.1162,5.122,5.1267,5.1364,5.1385,5.144,5.1434,5.1497,5.1442,5.1442,5.1437,5.1434,5.144,5.1508,5.1509,5.1511,5.1512,0,5.0927,5.0931,5.098,5.1034,5.1075,5.1117,5.1156,5.1185,5.1195,5.1237,5.1298,5.1335,5.1408,5.1467,5.1521,5.1543,5.1531,5.153,5.1546,5.1548,5.1544,5.1549,5.1358,5.1525,5.1524,5.1523,5.1522,5.1522,5.1026,5.1072,5.1111,5.1168,5.1199,5.1237,5.1283,5.1302,5.1353,5.1413,5.1413,5.1481,5.152,5.1592,5.1619,5.1673,5.1652,5.1676,5.1682,5.1689,5.1695,5.1535,5.1682,5.1682,5.1682,5.1681,5.1681,0,5.1164,5.1189,5.1241,5.1298,5.1343,5.1327,5.1371,5.141,5.147,5.1508,5.1555,5.1627,5.1685,5.1712,5.1769,5.1808,5.1804,5.1823,5.1821,5.1826,5.1709,5.1689,5.1826,5.1826,5.1826,5.1826,5.1826,5.1825,5.1242,5.1321,5.133,5.1426,5.145,5.1516,5.1543,5.1579,5.1609,5.1691,5.1739,5.1756,5.179,5.1851,5.1904,5.191,5.1933,5.1955,5.1959,5.1849,5.1834,5.182,5.1802,5.196,5.196,5.2072,5.2073,5.2074]},{"header":{"parameterUnit":"m.s-1","parameterCategory":1,"la1":30.2991,"la2":30.254,"lo1":-89.0895,"lo2":-89.0444,"dy":0.0017,"dx":0.0017,"nx":28,"ny":28,"refTime":"2026-02-04T09:00:00:Z","depth":0,"parameterNumber":3,"parameterNumberName":"V-component_of_WINDS"},"data":[0,0,0,0,0,0,0,0,0,0,0,0,0,0,0,0,0,0,0,0,0,0,0,0,0,0,0,0,0,0,0,0,0,0,0,0,0,0,0,0,0,0,0,0,0,0,0,0,0,0,0,0,0,0,0,0,0,0,-4.2764,-4.2765,0,-4.2876,-4.2877,-4.2878,-4.2897,-4.2896,-4.2895,-4.2894,-4.3006,-4.301,-4.3014,0,0,0,0,0,0,0,0,0,0,0,0,0,-4.2567,-4.257,-4.2764,-4.2765,-4.2767,-4.2875,-4.2877,-4.2878,-4.2897,-4.2896,-4.2895,-4.2894,-4.3005,-4.3009,-4.3014,0,0,0,0,0,0,0,0,0,0,0,0,0,-4.2662,-4.2571,-4.2764,-4.2789,-4.2793,-4.2875,-4.2877,-4.2879,-4.2898,-4.2896,-4.2895,-4.2893,-4.3003,-4.3009,-4.3015,-4.3079,0,0,-4.3032,-4.3035,0,0,0,0,0,0,0,0,-4.2657,-4.267,-4.2784,-4.2788,-4.2792,-4.2871,-4.2848,-4.2946,-4.2898,-4.2858,-4.2894,-4.2893,-4.2962,-4.2971,-4.2995,-4.3084,-4.3089,-4.3033,-4.3036,-4.3039,-4.304,0,0,0,0,0,0,0,-4.265,-4.2665,-4.2808,-4.2786,-4.279,-4.2795,-4.2807,-4.2867,-4.2916,-4.2861,-4.2863,-4.2876,-4.2964,-4.299,-4.2998,-4.309,-4.3033,-4.3038,-4.3041,-4.3044,-4.3239,-4.3241,0,0,0,0,0,0,-4.2639,-4.2659,-4.2804,-4.2811,-4.272,-4.28,-4.2813,-4.2847,-4.2916,-4.2925,-4.2877,-4.2876,-4.298,-4.2991,-4.3002,-4.3083,-4.3039,-4.3044,-4.3048,-4.3238,-4.324,-4.3242,0,0,0,0,0,0,-4.2635,-4.2652,-4.28,-4.2736,-4.2755,-4.2805,-4.2842,-4.285,-4.2876,-4.2928,-4.2937,-4.2894,-4.298,-4.2994,-4.306,-4.3087,-4.3047,-4.3052,-4.3235,-4.3238,-4.3241,-4.3244,0,0,0,0,0,0,-4.2629,-4.265,-4.2675,-4.2736,-4.2758,-4.2856,-4.2844,-4.2853,-4.2886,-4.2886,-4.2946,-4.2955,-4.298,-4.3051,-4.3066,-4.3094,-4.3057,-4.3233,-4.3237,-4.324,-4.3242,-4.3246,-4.325,0,0,0,0,0,-4.2622,-4.267,-4.2676,-4.2694,-4.279,-4.2858,-4.287,-4.2899,-4.2888,-4.2913,-4.2947,-4.2953,-4.3082,-4.3058,-4.3074,-4.3105,-4.3232,-4.3236,-4.324,-4.324,-4.3245,-4.325,0,0,0,0,0,0,-4.2609,-4.2679,-4.2686,-4.2756,-4.2801,-4.2861,-4.2894,-4.2904,-4.2952,-4.295,-4.2983,-4.2996,-4.3061,-4.3089,-4.3062,-4.3171,-4.3156,-4.3163,-4.315,-4.3156,-4.316,-4.3152,-4.3061,0,0,0,0,0,-4.2615,-4.2664,-4.2722,-4.2778,-4.2801,-4.2843,-4.2874,-4.2892,-4.294,-4.2958,-4.2997,-4.3043,-4.3094,-4.3127,-4.3176,-4.3246,-4.326,-4.3275,-4.328,-4.3283,-4.3289,-4.333,-4.3338,-4.3254,-4.3254,-4.3254,0,0,-4.2626,-4.2671,-4.2699,-4.2777,-4.2814,-4.2864,-4.2859,-4.2912,-4.295,-4.2966,-4.3032,-4.3062,-4.3115,-4.3184,-4.3216,-4.321,-4.3315,-4.3288,-4.329,-4.3294,-4.3335,-4.3342,-4.3349,-4.3257,-4.3256,-4.3256,0,0,-4.2673,-4.2711,-4.2763,-4.2801,-4.2858,-4.2887,-4.2899,-4.2959,-4.298,-4.3046,-4.306,-4.3106,-4.3192,-4.3231,-4.3261,-4.3326,-4.3333,-4.3341,-4.3363,-4.3403,-4.3409,-4.3415,-4.3439,-4.3448,-4.3347,-4.3347,-4.3347,0,-4.268,-4.2757,-4.2788,-4.2842,-4.2876,-4.2895,-4.2948,-4.2983,-4.3053,-4.3076,-4.3068,-4.3179,-4.3216,-4.3295,-4.3311,-4.3335,-4.3351,-4.3334,-4.3406,-4.3412,-4.3418,-4.3442,-4.3451,-4.3347,-4.3347,-4.3347,-4.3347,0,-4.2764,-4.2817,-4.2852,-4.2921,-4.2959,-4.3012,-4.3051,-4.3086,-4.3101,-4.3131,-4.3199,-4.3245,-4.3305,-4.3325,-4.334,-4.3407,-4.3402,-4.34,-4.3385,-4.3426,-4.3449,-4.3458,-4.3348,-4.3348,-4.3348,-4.3348,0,0,-4.2804,-4.2891,-4.2904,-4.2936,-4.3002,-4.3044,-4.3098,-4.3158,-4.3188,-4.3236,-4.3283,-4.3357,-4.3357,-4.3392,-4.3411,-4.3446,-4.3496,-4.344,-4.3442,-4.3449,-4.3574,-4.3576,-4.3585,-4.3502,-4.3503,-4.3505,-4.357,0,-4.2859,-4.2958,-4.2988,-4.307,-4.3121,-4.3141,-4.3188,-4.3234,-4.3263,-4.3311,-4.3343,-4.3396,-4.339,-4.3412,-4.3447,-4.3482,-4.3521,-4.3478,-4.3546,-4.3548,-4.3532,-4.3597,-4.3598,-4.3657,-4.3579,-4.358,-4.3581,0,-4.2936,-4.2988,-4.3076,-4.3137,-4.3159,-4.3202,-4.3261,-4.3305,-4.3358,-4.3377,-4.3417,-4.3435,-4.3493,-4.3475,-4.3556,-4.3526,-4.3556,-4.3578,-4.3581,-4.3588,-4.3567,-4.3607,-4.3677,-4.3686,-4.3595,-4.3594,-4.3593,0,-4.2958,-4.305,-4.3114,-4.3141,-4.3214,-4.3244,-4.3275,-4.3327,-4.3362,-4.3413,-4.3437,-4.3493,-4.3525,-4.3569,-4.3601,-4.3585,-4.368,-4.3665,-4.3698,-4.3697,-4.3717,-4.3715,-4.3793,-4.3735,-4.3735,-4.3735,-4.3735,0,-4.3017,-4.307,-4.3126,-4.3165,-4.3226,-4.3261,-4.332,-4.3352,-4.3399,-4.3445,-4.3466,-4.3509,-4.355,-4.3599,-4.3625,-4.3689,-4.3702,-4.372,-4.3726,-4.3718,-4.3716,-4.3738,-4.3735,-4.3737,-4.3737,-4.3736,-4.3736,0,-4.3052,-4.3091,-4.3163,-4.3227,-4.3245,-4.3286,-4.3341,-4.3381,-4.3412,-4.3471,-4.3487,-4.3536,-4.3595,-4.3633,-4.3707,-4.3725,-4.3795,-4.38,-4.3778,-4.3781,-4.3812,-4.3809,-4.3907,-4.3923,-4.3854,-4.3854,-4.3855,0,-4.3086,-4.3128,-4.3198,-4.3231,-4.3263,-4.3317,-4.3353,-4.339,-4.3427,-4.3492,-4.3524,-4.3585,-4.3635,-4.3729,-4.3771,-4.3828,-4.3835,-4.3865,-4.3843,-4.3835,-4.3836,-4.3834,-4.3839,-4.3869,-4.3869,-4.387,-4.387,0,-4.3145,-4.3163,-4.3215,-4.3275,-4.3319,-4.3367,-4.3416,-4.3442,-4.3487,-4.3528,-4.3589,-4.3629,-4.3706,-4.3766,-4.3828,-4.3861,-4.3874,-4.3877,-4.3888,-4.388,-4.3866,-4.3876,-4.3788,-4.3874,-4.3874,-4.3874,-4.3873,-4.3873,-4.3181,-4.322,-4.3276,-4.3334,-4.3375,-4.342,-4.3461,-4.3499,-4.3551,-4.3618,-4.3636,-4.3701,-4.3754,-4.3839,-4.3873,-4.3924,-4.392,-4.3936,-4.394,-4.3943,-4.3944,-4.3858,-4.3936,-4.3936,-4.3935,-4.3935,-4.3935,0,-4.3242,-4.3279,-4.3332,-4.3401,-4.3447,-4.3456,-4.3511,-4.3549,-4.3606,-4.3655,-4.3705,-4.3777,-4.3836,-4.3884,-4.3945,-4.3977,-4.3984,-4.3992,-4.399,-4.3997,-4.3944,-4.3929,-4.3985,-4.3985,-4.3985,-4.3985,-4.3985,-4.3985,-4.3278,-4.3345,-4.337,-4.3458,-4.3495,-4.3559,-4.359,-4.3632,-4.3672,-4.3752,-4.3801,-4.3833,-4.3882,-4.3947,-4.4002,-4.4015,-4.4037,-4.4043,-4.4057,-4.4006,-4.4001,-4.3996,-4.3982,-4.4048,-4.4048,-4.4107,-4.4107,-4.4107]}]]